Location: Moonridge Observatory
(39.2268°N, 77.7914°W)
Time: 02:38:12
(UTC-05:00)

Amateur Radio Satellites - All Passes

Search period start: 28 February 2017 02:08
Search period end: 01 March 2017 02:08
Location: Moonridge Observatory, 39.2268°N, 77.7914°W

Satellite Date Start Highest point End Downlink Frequencies (MHz)
Time Altitude Azimuth
Oscar 19 28 Feb 02:14:16 02:19:14 52° 288° (WNW) 02:24:11 437.125/150
AO-85 28 Feb 02:32:40 02:35:52 19° 112° (ESE) 02:38:55 145.980
AO-7 28 Feb 02:40:30 02:47:04 25° 95° (E) 02:53:32 .
CUBESAT XI-V 28 Feb 02:49:36 02:51:11 12° 62° (ENE) 02:52:46 437.345
ITAMSAT 1 28 Feb 02:54:27 02:59:15 36° 98° (E) 03:04:00 435.822/435.867
MOZHAYETS 4 28 Feb 03:15:56 03:20:30 58° 260° (W) 03:25:06
ITUPSAT 1 28 Feb 03:18:06 03:21:43 21° 266° (W) 03:25:22 437.325
BEESAT 28 Feb 03:23:03 03:26:21 18° 267° (W) 03:29:40 436.000
Gurwin Techsat 1B 28 Feb 03:23:32 03:27:40 23° 295° (WNW) 03:31:47 435.225
KKS-1 28 Feb 03:25:29 03:29:40 44° 72° (ENE) 03:33:54 437.445
STARS 28 Feb 03:51:17 03:55:18 37° 71° (ENE) 03:59:21 437.465
RS-15 28 Feb 04:06:29 04:16:21 31° 257° (WSW) 04:25:55 29.354- 29.394
AO-85 28 Feb 04:11:41 04:16:01 43° 305° (NW) 04:20:05 145.980
CUBESAT XI-V 28 Feb 04:23:17 04:27:56 73° 258° (WSW) 04:32:35 437.345
AO-7 28 Feb 04:32:09 04:40:21 68° 292° (WNW) 04:48:32 .
ITAMSAT 1 28 Feb 04:34:11 04:38:32 27° 294° (WNW) 04:42:52 435.822/435.867
M-CUBED/EXP-1 PRIME 28 Feb 04:53:46 04:56:58 50° 255° (WSW) 05:00:09 437.505
DOVE 4 28 Feb 04:58:23 04:59:52 11° 90° (E) 05:01:22 437.250
KKS-1 28 Feb 05:03:48 05:06:26 16° 267° (W) 05:09:06 437.445
BEESAT 3 28 Feb 05:09:41 05:13:26 48° 116° (ESE) 05:17:14 437.485
XW-2F 28 Feb 05:16:48 05:17:23 10° 91° (E) 05:17:58 145.980 - 146.000
SO-50 28 Feb 05:21:32 05:24:57 21° 46° (NE) 05:28:20 436.795
XW-2D 28 Feb 05:22:07 05:24:03 13° 92° (E) 05:25:57 145.860 - 145.880
XW-2B 28 Feb 05:26:58 05:29:13 15° 93° (E) 05:31:25 145.730 - 145.750
STARS 28 Feb 05:28:44 05:31:46 18° 266° (W) 05:34:48 437.465
XW-2C 28 Feb 05:35:17 05:38:04 19° 94° (E) 05:40:50 145.795 - 145.815
NUDT-PHONESAT 28 Feb 05:36:26 05:38:46 16° 93° (E) 05:41:05 437.300
Tancredo 1 28 Feb 05:40:00 05:41:56 15° 130° (SE) 05:43:52 437.200
BEESAT 2 28 Feb 05:54:38 05:58:30 62° 119° (ESE) 06:02:28 435.950
LilacSat-2 28 Feb 05:54:51 05:58:25 35° 98° (E) 06:01:55 437.200
STRAND 1 28 Feb 06:02:27 06:07:02 34° 69° (ENE) 06:11:38 437.568
CUTE-I 28 Feb 06:03:36 06:08:40 41° 98° (E) 06:13:42 437.470
AO-7 28 Feb 06:27:27 06:31:35 15° 312° (NW) 06:35:43 .
DOVE 4 28 Feb 06:33:06 06:37:55 75° 283° (WNW) 06:43:00 437.250
KAITUO 1B 28 Feb 06:38:00 06:41:47 79° 282° (WNW) 06:45:29 145.475/437.950
XW-2F 28 Feb 06:48:08 06:51:48 48° 286° (WNW) 06:55:26 145.980 - 146.000
BEESAT 3 28 Feb 06:48:47 06:51:17 16° 314° (NW) 06:53:50 437.485
XW-2D 28 Feb 06:54:51 06:58:24 37° 287° (WNW) 07:01:54 145.860 - 145.880
ISS 28 Feb 06:56:50 07:00:08 85° 325° (NW) 07:03:27 437.550
XW-2B 28 Feb 07:00:03 07:03:30 33° 288° (WNW) 07:06:56 145.730 - 145.750
SO-50 28 Feb 07:01:19 07:05:38 46° 243° (WSW) 07:09:53 436.795
XW-2C 28 Feb 07:09:03 07:12:15 26° 290° (WNW) 07:15:26 145.795 - 145.815
NUDT-PHONESAT 28 Feb 07:09:27 07:12:46 30° 288° (WNW) 07:16:04 437.300
Tancredo 1 28 Feb 07:14:42 07:17:53 52° 325° (NW) 07:21:05 437.200
CUTE 1.7 + AOD 2 28 Feb 07:27:00 07:31:03 44° 99° (E) 07:35:03 437.475
LilacSat-2 28 Feb 07:30:08 07:32:22 15° 293° (WNW) 07:34:36 437.200
XW-2A 28 Feb 07:32:06 07:35:35 86° 103° (ESE) 07:39:02 145.665 - 145.685
BEESAT 2 28 Feb 07:34:34 07:36:41 14° 316° (NW) 07:38:50 435.950
HO-68 28 Feb 07:36:42 07:43:45 58° 102° (ESE) 07:50:45 435.675
O/OREOS (USA 219) 28 Feb 07:37:47 07:42:09 42° 64° (ENE) 07:46:31 437.305
STRAND 1 28 Feb 07:41:51 07:46:12 28° 264° (W) 07:50:35 437.568
CUTE-I 28 Feb 07:44:08 07:48:28 25° 295° (WNW) 07:52:46 437.470
AAUSAT CUBESAT 2 28 Feb 07:58:10 08:01:51 31° 97° (E) 08:05:28 437.432
FO-29 28 Feb 08:07:14 08:10:25 13° 52° (NE) 08:13:38 435.910
AO-73 28 Feb 08:13:42 08:17:11 22° 94° (E) 08:20:35 145.935
Oscar 11 28 Feb 08:16:31 08:19:38 19° 93° (E) 08:22:43 .
CUBEBUG 2 28 Feb 08:18:04 08:22:51 76° 103° (ESE) 08:27:31 437.445
SEEDS 28 Feb 08:18:08 08:22:17 69° 285° (WNW) 08:26:24 437.485
YUBILEINY 28 Feb 08:19:06 08:22:53 14° 75° (ENE) 08:26:40 435.215
TIGRISAT 28 Feb 08:31:56 08:35:06 19° 66° (ENE) 08:38:20 435.000
UNISAT 6 28 Feb 08:32:26 08:35:48 21° 66° (ENE) 08:39:12 437.425
ISS 28 Feb 08:34:48 08:37:00 16° 340° (NNW) 08:39:13 437.550
UWE-3 28 Feb 08:48:45 08:53:25 81° 285° (WNW) 08:57:59 435.000/436.395/437.385
Tancredo 1 28 Feb 08:53:03 08:54:44 13° 344° (NNW) 08:56:25 437.200
PRISM 28 Feb 08:57:58 09:02:02 84° 258° (WSW) 09:06:07 437.425
ZACube-1 28 Feb 09:02:27 09:07:01 84° 100° (E) 09:11:27 437.345
DELFI C3 28 Feb 09:02:50 09:05:35 18° 94° (E) 09:08:19 145.870
CUTE 1.7 + AOD 2 28 Feb 09:04:05 09:06:29 15° 294° (WNW) 09:08:53 437.475
O/OREOS (USA 219) 28 Feb 09:18:10 09:21:11 17° 260° (W) 09:24:12 437.305
HO-68 28 Feb 09:25:14 09:31:00 27° 299° (WNW) 09:36:45 435.675
AAUSAT CUBESAT 2 28 Feb 09:34:06 09:37:05 20° 292° (WNW) 09:40:03 437.432
FO-29 28 Feb 09:46:41 09:53:49 64° 71° (ENE) 10:01:32 435.910
AO-73 28 Feb 09:49:24 09:53:27 33° 290° (WNW) 09:57:24 145.935
Oscar 11 28 Feb 09:51:56 09:55:50 34° 289° (WNW) 09:59:43 .
CUBEBUG 2 28 Feb 09:57:07 09:58:46 12° 298° (WNW) 10:00:24 437.445
TIGRISAT 28 Feb 10:07:11 10:11:26 41° 262° (W) 10:15:49 435.000
UNISAT 6 28 Feb 10:08:01 10:12:12 37° 262° (W) 10:16:31 437.425
YUBILEINY 28 Feb 10:09:20 10:18:08 78° 94° (E) 10:26:56 435.215
DUCHIFAT 1 28 Feb 10:13:15 10:15:59 17° 66° (ENE) 10:18:43 145.980
AIST 2D 28 Feb 10:17:21 10:20:31 31° 73° (ENE) 10:23:44 435.315
LO-87 28 Feb 10:20:35 10:22:59 17° 94° (E) 10:25:23 145.935 - 145.965
EO-79 28 Feb 10:26:56 10:30:33 28° 70° (ENE) 10:34:13 145.935-145.965
DELFI C3 28 Feb 10:36:58 10:40:24 29° 289° (WNW) 10:43:49 145.870
NANOSAT C BR1 28 Feb 10:41:27 10:45:21 38° 72° (ENE) 10:49:17 145.865
POLYITAN 1 28 Feb 10:45:00 10:49:03 46° 73° (ENE) 10:53:10 437.675
ESTCUBE 1 28 Feb 10:45:22 10:48:31 19° 93° (E) 10:51:40 437.505/2401.250
QB50P2 28 Feb 10:48:03 10:52:10 54° 74° (ENE) 10:56:20 145.880/145.840
BUGSAT 1 28 Feb 10:56:46 10:59:27 17° 66° (ENE) 11:02:08 437.445
AO-85 28 Feb 11:05:09 11:06:43 12° 43° (NE) 11:08:17 145.980
FO-29 28 Feb 11:33:35 11:39:19 25° 270° (W) 11:45:26 435.910
DUCHIFAT 1 28 Feb 11:47:23 11:51:19 39° 262° (W) 11:55:18 145.980
ISS 28 Feb 11:49:56 11:52:08 16° 20° (NNE) 11:54:20 437.550
Oscar 19 28 Feb 11:51:55 11:55:59 24° 66° (ENE) 12:00:02 437.125/150
AIST 2D 28 Feb 11:51:58 11:53:50 14° 267° (W) 11:55:43 435.315
LO-87 28 Feb 11:53:22 11:56:27 27° 289° (WNW) 11:59:30 145.935 - 145.965
EO-79 28 Feb 12:02:57 12:06:17 22° 265° (W) 12:09:39 145.935-145.965
Tancredo 1 28 Feb 12:06:55 12:09:26 20° 24° (NNE) 12:11:54 437.200
50 SAT 28 Feb 12:07:26 12:10:29 28° 97° (E) 12:13:30 437.505
YUBILEINY 28 Feb 12:09:29 12:15:53 22° 294° (WNW) 12:22:18 435.215
DX 1 28 Feb 12:12:31 12:15:57 22° 95° (E) 12:19:22 434.975-435.025
SPROUT 28 Feb 12:14:09 12:18:19 46° 99° (E) 12:22:27 437.525
UKube-1 28 Feb 12:18:06 12:21:05 18° 94° (E) 12:24:04 .
NANOSAT C BR1 28 Feb 12:18:29 12:21:12 17° 267° (W) 12:23:57 145.865
ESTCUBE 1 28 Feb 12:21:18 12:25:27 37° 289° (WNW) 12:29:34 437.505/2401.250
POLYITAN 1 28 Feb 12:22:50 12:25:05 14° 268° (W) 12:27:20 437.675
QB50P2 28 Feb 12:26:41 12:28:17 12° 269° (W) 12:29:52 145.880/145.840
BUGSAT 1 28 Feb 12:30:45 12:34:30 36° 262° (W) 12:38:19 437.445
VELOX 1 28 Feb 12:31:30 12:35:56 89° 96° (E) 12:40:22 145.980
AO-85 28 Feb 12:43:39 12:47:33 69° 240° (WSW) 12:51:31 145.980
Gurwin Techsat 1B 28 Feb 13:02:51 13:08:04 62° 73° (ENE) 13:13:20 435.225
ISS 28 Feb 13:25:43 13:29:01 86° 37° (NE) 13:32:17 437.550
BEESAT 3 28 Feb 13:27:46 13:30:58 22° 49° (NE) 13:34:08 437.485
Oscar 19 28 Feb 13:30:15 13:35:03 39° 262° (W) 13:39:52 437.125/150
AO-7 28 Feb 13:38:18 13:45:32 34° 59° (ENE) 13:52:45 .
50 SAT 28 Feb 13:41:20 13:43:21 15° 292° (WNW) 13:45:21 437.505
Tancredo 1 28 Feb 13:42:44 13:45:55 58° 221° (SW) 13:49:04 437.200
ITUPSAT 1 28 Feb 13:44:12 13:44:34 10° 90° (E) 13:44:55 437.325
BEESAT 28 Feb 13:47:11 13:48:52 12° 90° (E) 13:50:32 436.000
DX 1 28 Feb 13:48:19 13:52:07 30° 291° (WNW) 13:55:56 434.975-435.025
SPROUT 28 Feb 13:51:19 13:53:49 15° 295° (WNW) 13:56:19 437.525
UKube-1 28 Feb 13:53:15 13:57:13 36° 289° (WNW) 14:01:10 .
ITAMSAT 1 28 Feb 14:11:11 14:16:11 50° 71° (ENE) 14:21:14 435.822/435.867
BEESAT 2 28 Feb 14:13:32 14:17:02 27° 50° (NE) 14:20:30 435.950
PCSat 28 Feb 14:24:03 14:28:06 22° 106° (ESE) 14:32:08 145.827
Gurwin Techsat 1B 28 Feb 14:45:23 14:48:25 15° 269° (W) 14:51:28 435.225
BEESAT 3 28 Feb 15:05:00 15:08:37 33° 246° (WSW) 15:12:12 437.485
MOZHAYETS 4 28 Feb 15:12:09 15:16:21 34° 97° (E) 15:20:30
ITUPSAT 1 28 Feb 15:18:06 15:22:55 77° 285° (WNW) 15:27:40 437.325
BEESAT 28 Feb 15:22:19 15:27:05 68° 286° (WNW) 15:31:48 436.000
NO-84 28 Feb 15:23:06 15:25:59 39° 130° (SE) 15:29:07 435.350 FM
AO-7 28 Feb 15:29:46 15:37:54 55° 257° (WSW) 15:46:05 .
BEESAT 2 28 Feb 15:51:20 15:54:44 26° 247° (WSW) 15:58:06 435.950
ITAMSAT 1 28 Feb 15:52:17 15:55:54 19° 267° (W) 15:59:33 435.822/435.867
PCSat 28 Feb 16:05:52 16:11:05 49° 303° (WNW) 16:16:22 145.827
RS-15 28 Feb 16:13:29 16:24:47 54° 110° (ESE) 16:36:32 29.354- 29.394
CUBESAT XI-V 28 Feb 16:21:10 16:25:11 29° 96° (E) 16:29:10 437.345
LilacSat-2 28 Feb 16:36:32 16:39:00 16° 67° (ENE) 16:41:29 437.200
MOZHAYETS 4 28 Feb 16:49:46 16:53:16 22° 293° (WNW) 16:56:46
KKS-1 28 Feb 16:53:27 16:57:56 77° 285° (WNW) 17:02:24 437.445
NO-84 28 Feb 17:01:16 17:03:47 20° 330° (NNW) 17:06:28 435.350 FM
KAITUO 1B 28 Feb 17:16:49 17:20:21 37° 73° (ENE) 17:23:54 145.475/437.950
STARS 28 Feb 17:17:17 17:21:45 85° 105° (ESE) 17:26:11 437.465
CUTE-I 28 Feb 17:24:14 17:29:28 60° 73° (ENE) 17:34:45 437.470
XW-2F 28 Feb 17:27:25 17:31:12 63° 75° (ENE) 17:35:02 145.980 - 146.000
XW-2D 28 Feb 17:34:17 17:38:08 84° 77° (ENE) 17:42:01 145.860 - 145.880
DOVE 4 28 Feb 17:37:54 17:42:03 84° 261° (W) 17:46:16 437.250
XW-2B 28 Feb 17:39:25 17:43:17 87° 258° (WSW) 17:47:10 145.730 - 145.750
NUDT-PHONESAT 28 Feb 17:46:58 17:50:44 85° 258° (WSW) 17:54:32 437.300
XW-2C 28 Feb 17:48:17 17:52:06 65° 259° (W) 17:55:57 145.795 - 145.815
CUBESAT XI-V 28 Feb 17:58:39 18:02:25 26° 292° (WNW) 18:06:10 437.345
XW-2A 28 Feb 18:02:55 18:05:37 22° 71° (ENE) 18:08:21 145.665 - 145.685
HO-68 28 Feb 18:04:15 18:10:44 39° 65° (ENE) 18:17:14 435.675
M-CUBED/EXP-1 PRIME 28 Feb 18:06:11 18:10:05 68° 289° (WNW) 18:14:17 437.505
LilacSat-2 28 Feb 18:09:29 18:13:00 33° 263° (W) 18:16:34 437.200
STRAND 1 28 Feb 18:16:01 18:17:51 12° 90° (E) 18:19:40 437.568
CUTE 1.7 + AOD 2 28 Feb 18:18:37 18:22:15 28° 70° (ENE) 18:25:54 437.475
RS-15 28 Feb 18:25:55 18:37:27 50° 313° (NW) 18:49:25 29.354- 29.394
AAUSAT CUBESAT 2 28 Feb 18:47:48 18:50:42 19° 68° (ENE) 18:53:37 437.432
KAITUO 1B 28 Feb 18:52:36 18:54:31 13° 268° (W) 18:56:26 145.475/437.950
CUTE-I 28 Feb 19:06:41 19:09:53 16° 268° (W) 19:13:07 437.470
SEEDS 28 Feb 19:08:09 19:12:21 67° 76° (ENE) 19:16:33 437.485
AO-73 28 Feb 19:08:39 19:11:23 16° 65° (ENE) 19:14:08 145.935
Oscar 11 28 Feb 19:11:10 19:13:27 14° 65° (ENE) 19:15:43 .
CUBEBUG 2 28 Feb 19:14:37 19:18:58 53° 74° (ENE) 19:23:29 437.445
XW-2A 28 Feb 19:35:59 19:38:21 18° 266° (W) 19:40:44 145.665 - 145.685
UWE-3 28 Feb 19:43:58 19:48:25 70° 76° (ENE) 19:53:02 435.000/436.395/437.385
HO-68 28 Feb 19:51:45 19:58:22 40° 262° (W) 20:05:01 435.675
STRAND 1 28 Feb 19:52:23 19:57:33 75° 285° (WNW) 20:02:40 437.568
CUTE 1.7 + AOD 2 28 Feb 19:54:37 19:58:02 23° 265° (W) 20:01:29 437.475
ZACube-1 28 Feb 19:56:32 20:00:55 56° 74° (ENE) 20:05:24 437.345
YUBILEINY 28 Feb 20:21:21 20:29:14 36° 72° (ENE) 20:37:02 435.215
AAUSAT CUBESAT 2 28 Feb 20:22:09 20:25:55 33° 263° (W) 20:29:42 437.432
JUGNU 28 Feb 20:39:27 20:40:01 10° 176° (S) 20:40:34 437.505
PRISM 28 Feb 20:41:48 20:43:54 14° 93° (E) 20:46:01 437.425
AO-73 28 Feb 20:42:50 20:47:10 49° 261° (W) 20:51:36 145.935
Oscar 11 28 Feb 20:44:52 20:49:06 52° 260° (W) 20:53:23 .
RS-15 28 Feb 20:45:14 20:54:06 22° 345° (NNW) 21:03:03 29.354- 29.394
CUBEBUG 2 28 Feb 20:53:39 20:55:56 14° 270° (W) 20:58:15 437.445
SO-50 28 Feb 21:13:48 21:18:28 72° 118° (ESE) 21:23:05 436.795
DELFI C3 28 Feb 21:20:33 21:24:28 63° 259° (W) 21:28:23 145.870
UWE-3 28 Feb 21:24:41 21:25:22 10° 272° (W) 21:26:04 435.000/436.395/437.385
ZACube-1 28 Feb 21:35:27 21:37:31 13° 270° (W) 21:39:38 437.345
ESTCUBE 1 28 Feb 21:44:25 21:47:11 16° 65° (ENE) 21:49:58 437.505/2401.250
O/OREOS (USA 219) 28 Feb 21:48:46 21:53:09 61° 108° (ESE) 21:57:37 437.305
NO-84 28 Feb 21:57:28 22:00:51 26° 33° (NNE) 22:04:25 435.350 FM
TIGRISAT 28 Feb 21:59:28 22:03:58 44° 98° (E) 22:08:23 435.000
UNISAT 6 28 Feb 22:00:20 22:04:54 49° 99° (E) 22:09:22 437.425
PRISM 28 Feb 22:15:31 22:19:23 43° 288° (WNW) 22:23:15 437.425
YUBILEINY 28 Feb 22:17:58 22:26:09 47° 272° (W) 22:34:17 435.215
LO-87 28 Feb 22:27:43 22:31:15 83° 259° (W) 22:34:49 145.935 - 145.965
50 SAT 28 Feb 22:42:47 22:43:27 10° 66° (ENE) 22:44:07 437.505
FO-29 28 Feb 22:43:12 22:50:38 63° 100° (E) 22:57:13 435.910
SO-50 28 Feb 22:56:31 22:59:24 16° 317° (NW) 23:02:16 436.795
RS-15 28 Feb 23:03:25 23:12:55 24° 22° (NNE) 23:22:13 29.354- 29.394
SPROUT 28 Feb 23:06:31 23:10:15 30° 70° (ENE) 23:14:00 437.525
DX 1 28 Feb 23:07:33 23:10:27 18° 66° (ENE) 23:13:21 434.975-435.025
UKube-1 28 Feb 23:12:23 23:14:41 14° 64° (ENE) 23:16:59 .
PCSat 28 Feb 23:12:25 23:15:57 17° 45° (NE) 23:19:27 145.827
AIST 2D 28 Feb 23:16:22 23:19:48 44° 99° (E) 23:23:10 435.315
ESTCUBE 1 28 Feb 23:19:15 23:23:35 47° 261° (W) 23:27:57 437.505/2401.250
VELOX 1 28 Feb 23:27:21 23:31:41 68° 75° (ENE) 23:36:03 145.980
O/OREOS (USA 219) 28 Feb 23:30:40 23:33:00 14° 306° (NW) 23:35:20 437.305
DUCHIFAT 1 28 Feb 23:32:15 23:36:08 33° 97° (E) 23:39:57 145.980
SRMSAT 28 Feb 23:33:26 23:34:56 11° 178° (S) 23:36:26 437.500
NO-84 28 Feb 23:34:43 23:38:43 50° 228° (SW) 23:42:55 435.350 FM
TIGRISAT 28 Feb 23:37:05 23:40:16 18° 295° (WNW) 23:43:25 435.000
UNISAT 6 28 Feb 23:38:12 23:41:10 17° 295° (WNW) 23:44:06 437.425
EO-79 28 Feb 23:47:27 23:51:42 61° 101° (E) 23:55:56 145.935-145.965
NANOSAT C BR1 01 Mar 00:01:53 00:06:11 83° 102° (ESE) 00:10:26 145.865
POLYITAN 1 01 Mar 00:06:13 00:10:32 80° 285° (WNW) 00:14:49 437.675
QB50P2 01 Mar 00:09:24 00:13:41 68° 285° (WNW) 00:17:56 145.880/145.840
50 SAT 01 Mar 00:12:48 00:16:09 43° 261° (W) 00:19:30 437.505
BUGSAT 1 01 Mar 00:13:11 00:17:02 32° 97° (E) 00:20:52 437.445
FO-29 01 Mar 00:29:06 00:34:57 26° 300° (WNW) 00:40:22 435.910
DX 1 01 Mar 00:42:17 00:46:19 39° 261° (W) 00:50:23 434.975-435.025
SPROUT 01 Mar 00:42:55 00:46:10 21° 266° (W) 00:49:26 437.525
UKube-1 01 Mar 00:46:06 00:50:16 50° 260° (W) 00:54:28 .
ITUPSAT 1 01 Mar 00:49:12 00:51:05 12° 61° (ENE) 00:52:58 437.325
AIST 2D 01 Mar 00:51:57 00:52:35 10° 294° (WNW) 00:53:12 435.315
BEESAT 01 Mar 00:52:34 00:54:53 14° 62° (ENE) 00:57:12 436.000
PCSat 01 Mar 00:54:32 00:59:59 79° 244° (WSW) 01:05:23 145.827
DUCHIFAT 1 01 Mar 01:08:26 01:11:34 20° 293° (WNW) 01:14:40 145.980
RS-15 01 Mar 01:16:35 01:28:49 61° 51° (NE) 01:40:28 29.354- 29.394
Gurwin Techsat 1B 01 Mar 01:20:37 01:25:06 27° 95° (E) 01:29:31 435.225
EO-79 01 Mar 01:25:20 01:26:55 12° 297° (WNW) 01:28:31 145.935-145.965
Oscar 19 01 Mar 01:42:20 01:47:29 79° 103° (ESE) 01:52:36 437.125/150
BUGSAT 1 01 Mar 01:49:01 01:52:11 20° 292° (WNW) 01:55:19 437.445
